RH
21 21 21 22 21 20 20 20 21 22 23 22 22 21 21 21 21 20 18 18 18 19 19 21 26 32 37 40 41 48 56 57 57 60 63 64 62 61 61 60 55 52
23 23 24 24 23 22 22 22 22 22 23 22 22 21 21 22 23 23 22 20 20 21 21 21 22 27 33 36 39 48 60 63 62 64 65 66 68 67 65 63 59 56
26 26 26 26 26 26 25 25 24 24 24 24 23 23 23 24 25 26 26 25 24 24 24 25 24 26 29 33 36 46 59 65 64 65 66 66 69 70 70 68 63 59
27 27 26 26 26 26 25 25 24 24 24 24 24 24 24 25 26 28 29 29 30 30 29 29 29 28 29 33 36 42 56 65 66 67 68 67 69 71 73 74 68 62
26 26 25 25 24 23 23 22 22 23 23 23 23 23 23 25 27 28 30 32 33 35 35 34 34 33 32 34 37 41 52 64 69 69 69 70 70 71 75 77 73 66
25 24 23 23 23 23 22 22 23 23 23 23 23 23 22 24 27 28 30 34 36 38 40 42 42 40 37 37 38 41 48 59 69 72 71 72 74 75 77 80 77 71
24 23 23 24 23 23 23 23 23 24 24 24 24 24 23 24 29 32 35 37 39 40 41 46 49 48 45 42 42 44 48 54 64 72 73 74 80 82 81 83 82 77
25 25 25 25 24 23 23 23 24 25 26 26 25 25 25 26 30 38 42 42 43 44 43 46 52 55 53 50 49 49 51 53 59 69 74 76 85 91 88 88 88 83
24 24 24 24 24 23 23 24 24 25 27 29 29 29 29 29 31 37 46 50 48 47 48 48 52 59 58 56 56 57 58 59 58 66 75 79 85 93 93 92 93 89
24 24 24 25 25 25 26 26 27 31 38 43 44 41 35 32 32 33 40 49 52 52 52 52 55 62 63 61 64 67 67 66 62 65 75 82 88 94 94 93 94 92
27 26 27 27 27 27 29 32 35 42 50 54 56 52 43 36 34 32 33 41 50 54 54 55 59 66 68 67 70 75 75 71 68 68 75 85 91 96 95 94 95 94
26 25 28 29 30 31 33 36 39 42 48 52 53 53 47 41 37 34 32 35 45 55 55 58 65 70 72 72 75 80 80 77 75 74 79 89 96 97 96 95 95 95
20 22 30 32 33 33 33 34 35 38 43 46 49 51 50 46 39 35 34 33 41 54 57 59 67 73 76 77 80 87 87 82 81 81 83 93 99 97 96 96 96 97
19 25 31 33 33 33 33 33 34 36 39 41 47 52 51 47 41 38 36 33 38 51 57 60 68 77 82 82 85 94 94 87 85 87 90 97 99 97 96 97 97 98
25 30 32 31 31 32 32 33 33 34 35 36 42 47 46 43 40 38 37 35 36 44 54 61 69 80 89 87 89 99 98 90 90 94 97 100 99 98 98 98 98 98
30 31 31 31 31 31 30 30 30 30 31 31 32 34 34 35 38 38 36 36 36 38 48 60 70 84 95 93 93 101 101 95 94 97 100 100 99 99 99 99 99 99
31 28 28 28 27 27 26 26 26 26 25 25 25 24 24 26 31 35 35 36 38 38 44 57 72 89 99 96 96 101 101 97 95 96 99 100 99 99 99 100 101 100
28 26 24 23 21 21 22 23 25 25 26 26 26 26 27 27 30 33 33 34 37 39 43 55 74 94 100 95 95 99 100 99 96 94 98 100 100 99 100 101 102 100
27 25 23 21 20 21 23 26 29 31 32 33 33 34 35 34 34 34 34 35 36 38 45 57 77 97 100 93 93 97 98 99 96 93 97 100 100 100 101 101 100 100
29 26 23 21 21 23 26 29 32 33 35 35 36 37 36 36 36 35 35 35 35 40 48 60 81 100 99 91 93 97 98 99 95 92 96 100 100 100 101 102 101 100
29 25 22 21 22 25 27 30 32 34 35 36 36 36 36 35 35 35 35 34 36 44 53 66 88 103 98 91 94 98 100 101 96 92 94 99 101 100 100 102 101 101
27 25 23 23 25 27 29 30 32 34 35 36 36 35 35 35 34 35 35 34 39 49 59 75 96 103 95 93 97 99 99 101 98 94 92 96 100 100 101 102 102 100
26 26 26 26 27 28 30 31 32 33 34 35 35 34 35 35 34 35 35 39 47 56 67 85 101 101 95 96 99 99 99 100 99 97 94 95 99 101 101 102 101 100
28 30 31 30 30 30 31 33 33 32 34 35 35 35 34 34 35 35 38 47 56 62 76 95 103 99 97 99 99 98 100 101 100 99 97 96 99 102 102 102 101 100
31 32 33 33 32 31 32 34 33 32 34 35 36 36 35 37 39 39 45 55 60 68 86 101 101 98 99 100 99 99 101 101 100 100 100 99 100 102 102 101 101 100
33 34 34 34 34 33 33 34 34 34 35 36 38 38 39 42 44 47 54 59 63 77 96 103 99 99 100 100 100 100 100 101 99 99 101 101 101 102 102 100 100 101